Regional Weather Roundup
Issued by NWS Jackson, KY

Home | Current Version | Previous Version | Graphics & Text | Print | Product List | Glossary On
Versions: 1 2 3 4 5 6 7 8 9 10 11 12 13 14 15 16 17 18 19 20 21 22 23 24 25 26 27 28 29 30 31 32 33 34 35 36 37 38 39 40 41 42 43 44 45 46 47 48 49
000
ASUS43 KJKL 280510
RWRJKL

EAST KENTUCKY HOURLY WEATHER ROUNDUP
NATIONAL WEATHER SERVICE JACKSON KY
100 AM EDT FRI AUG 28 2015

NOTE: "FAIR" INDICATES FEW OR NO CLOUDS BELOW 12,000 FEET WITH
NO SIGNIFICANT WEATHER AND/OR OBSTRUCTIONS TO VISIBILITY.

* THESE REPORTS ARE NOT UNDER NWS QUALITY CONTROL AND MAY NOT
  REPORT WEATHER SUCH AS PRECIPITATION AND FOG.

KYZ079-080-083-085-087-088-110-112-115-119-120-280600
...EASTERN KENTUCKY...

CITY           SKY/WX    TMP DP  RH WIND       PRES   REMARKS
JACKSON        CLEAR     62  54  74 CALM      30.16F
LONDON         CLEAR     62  54  74 CALM      30.15F
SOMERSET*      CLEAR     59  54  82 CALM      30.15S
MONTICELLO*    CLEAR     57  56  97 CALM      30.16F
WILLIAMSBURG*  CLEAR     61  59  94 CALM      30.15F
MIDDLESBORO*   CLOUDY    62  59  90 CALM      30.16S
HAZARD APT*    CLEAR     57  57 100 CALM      30.16F
BLACK MTN*       N/A     57  55  94 CALM        N/A
PIKEVILLE APT* PTCLDY    63  57  82 CALM      30.17F
BIG SANDY*     CLEAR     59  58  97 CALM      30.17S
MOREHEAD APT*  CLOUDY    63  54  72 CALM      30.17F
$$

KYZ035-036-041-042-044-050-067-078-099-280600
...CENTRAL KENTUCKY...

CITY           SKY/WX    TMP DP  RH WIND       PRES   REMARKS
MT STERLING*   CLEAR     55  55 100 SE6       30.16F
FLEMING/MASON* CLEAR     57  55  94 E5        30.16F
DANVILLE*      CLEAR     55  54  94 CALM      30.15F
RICHMOND*      CLEAR     57  54  88 E3        30.14F
LEXINGTON      CLEAR     64  53  67 E6        30.14F
FRANKFORT      CLEAR     60  54  80 E5        30.12F
$$

KYZ091>093-OHZ055-061-077-WVZ005-015-034-035-042-280600
...SOUTHERN OHIO/WEST VIRGINIA...

CITY           SKY/WX    TMP DP  RH WIND       PRES   REMARKS
COVINGTON      PTCLDY    62  57  83 SE3       30.15S
COLUMBUS       CLEAR     59  54  83 E5        30.16S
DAYTON         CLEAR     60  55  83 E5        30.17R
WILMINGTON     CLEAR     55  52  89 CALM      30.16S
HUNTINGTON     CLEAR     57  57 100 CALM      30.16S
CHARLESTON     PTCLDY    58  56  93 CALM      30.17S
PINEVILLE*     PTCLDY    58  58 100 MISG      30.24S
BECKLEY        CLEAR     58  53  84 SE3       30.22S
BLUEFIELD      CLEAR     62  54  74 CALM      30.23S
$$

VAZ002-007-008-TNZ017-027-036-066-071-280600
...SOUTHWEST VIRGINIA/EAST TENNESSEE...

CITY           SKY/WX    TMP DP  RH WIND       PRES   REMARKS
WISE*          PTCLDY    63  54  72 NE3       30.22F
JONESVILLE*    PTCLDY    61  61 100 CALM      30.18S
ABINGDON*      CLEAR     64  58  81 CALM      30.18S
BRISTOL        PTCLDY    63  59  87 CALM      30.15S
OAK RIDGE      MOCLDY    68  58  70 NE3       30.13S
CROSSVILLE     PTCLDY    63  56  78 NE3       30.15F
NASHVILLE      CLEAR     69  57  65 E5        30.09F
$$

...KEY TO REMARKS...
VSB - VISIBILITY IN MILES
WCI - WIND CHILL INDEX
HX  - HEAT INDEX

$$


USA.gov is the U.S. government's official web portal to all federal, state and local government web resources and services.